Location: Abraham Lincoln Continuation High School
(33.9711°N, 117.3662°W)
Time: 04:58:28
(UTC+00:00)

CZ-2C R/B - Pass Details

Date: 21 September 2020
Orbit: 391 x 588 km, 35.0° (Epoch: 25 October)

Event Time Altitude Azimuth Distance (km) Brightness Sun altitude
Rises 03:35:56 0° 279° (W) 2,477 6.1 -22.9°
Reaches altitude 10° 03:38:11 10° 279° (W) 1,567 4.7 -23.3°
Enters shadow 03:40:47 46° 281° (W) 591 1.8 -23.8°
